Voltar ao catálogo

STARLINK-34728

AtivoComunicaçõesSSO
NORAD 65455·PAYLOAD·🇺🇸 United States

Lançado Sep 3, 2025 de Vandenberg Space Force Base

Loading…

Próximas Passagens (próximas 24 horas)

TLE

AtualizadoSource: CelesTrak SupGP

Época: Sep 15, 2026, 03:45 UTC

1 65455C 25194X   26258.15673611 -.00053563  00000+0 -16619-2 0  2585
2 65455  97.2850 107.8436 0001985  91.9250  21.4376 15.33480464    18

Acompanhe STARLINK-34728 em tempo real com AllMySat

Download on the App Store